Location: Spring Creek
(38.2870°N, 100.2160°W)
Time: 13:12:33
(UTC+00:00)

Cosmos 405 - Pass Details

Date: 08 May 2021
Orbit: 446 x 461 km, 81.3° (Epoch: 22 June)

Event Time Altitude Azimuth Distance (km) Brightness Sun altitude
Rises 10:21:06 0° 357° (N) 2,495 7.1 -13.7°
Reaches altitude 10° 10:23:15 10° 3° (N) 1,614 6.2 -13.3°
Maximum altitude 10:26:40 48° 79° (E) 607 4.0 -12.8°
Drops below altitude 10° 10:30:03 10° 155° (SSE) 1,594 5.6 -12.2°
Sets 10:32:09 0° 161° (SSE) 2,460 6.5 -11.9°
